Home   Weather   Lublin   Past weeks

Flag for Poland Past Weather in Lublin, Poland — Yesterday and Last 2 Weeks

Now
23 °F

Fog.


Feels Like: 18 °F
Forecast: 31 / 34 °F
Wind: 3 mph from West

Location: Lublin Radawiec

Current Time: Jan 20, 2017 at 6:55:49 am

Latest Report: Jan 20, 2017 at 6:00 am


Visibility: 2 mi

Pressure: 30.54 "Hg

Humidity: 94%

Dew Point: 21 °F

Location of LublinLocation

Past Weather in Lublin — Graph

°F

Lublin Temperature Yesterday

Maximum temperature yesterday: 20 °F (at 9:00 pm)
Minimum temperature yesterday: 16 °F (at 5:00 am)
Average temperature yesterday: 18 °F

High & Low Weather Summary for the Past Weeks

 TemperatureHumidityPressure
High34 °F (Jan 12, 6:00 pm)97% (Jan 14, 8:00 am)30.81 "Hg (Jan 14, 8:00 am)
Low-7 °F (Jan 7, 5:00 am)67% (Jan 8, 5:00 pm)29.41 "Hg (Jan 13, 1:00 pm)
Average17 °F85%30.22 "Hg
* Reported Jan 5 5:00 am — Jan 20 5:00 am, Lublin, Weather by CustomWeather, © 2017

Note: Actual official high and low records may vary slightly from our data, if they occured in-between our weather recording intervals... More about our weather records

Advertising

Lublin Weather History for the Previous 24 Hours

Scroll right to see more
 ConditionsComfort  
Time TempWeatherWind HumidityBarometerVisibility
5:00 am
Fri, Jan 20
22 °FFog.3 mph92%30.55 "Hg2 mi
4:00 am22 °FFog.5 mph91%30.56 "Hg4 mi
3:00 am21 °FFog.5 mph91%30.57 "Hg4 mi
2:00 am20 °FLow clouds.3 mph91%30.59 "Hg3 mi
1:00 am20 °FFog.3 mph91%30.60 "Hg3 mi
12:00 am20 °FFog.3 mph91%30.62 "Hg4 mi
11:00 pm
Thu, Jan 19
20 °FFog.3 mph92%30.63 "Hg3 mi
10:00 pm19 °FFog.3 mph92%30.64 "Hg3 mi
9:00 pm20 °FFog.3 mph92%30.64 "Hg3 mi
8:00 pm19 °FFog.3 mph92%30.64 "Hg3 mi
7:00 pm19 °FFog.2 mph92%30.66 "Hg3 mi
6:00 pm19 °FFog.2 mph93%30.66 "Hg3 mi
5:00 pm19 °FFog.2 mph92%30.68 "Hg3 mi
4:00 pm19 °FFog.3 mph92%30.68 "Hg4 mi
3:00 pm19 °FFog.2 mph92%30.70 "Hg4 mi
2:00 pm19 °FFog.2 mph92%30.71 "Hg4 mi
1:00 pm19 °FFog.3 mph92%30.72 "Hg4 mi
12:00 pm19 °FFog.2 mph92%30.73 "Hg2 mi
11:00 am17 °FFog.2 mph91%30.76 "Hg3 mi
10:00 am17 °FOvercast.1 mph91%30.76 "Hg2 mi
9:00 am17 °FSnow flurries. Low clouds.2 mph91%30.76 "Hg2 mi
8:00 am17 °FSnow flurries. Low clouds.2 mph91%30.75 "Hg2 mi
7:00 am16 °FSnow flurries. Low clouds.2 mph91%30.75 "Hg5 mi
6:00 am16 °FSnow flurries. Low clouds.1 mph91%30.75 "Hg5 mi
Weather by CustomWeather, © 2017

See weather overviewHow to use our weather pages